ECMWFFLT1_500_spd_057.txt.gz
Wind_Speed
24 25 24 22 22 23 22 22 23 24 23 21 21 25 28 27 27 28 29 28 29 28 26 24 23 23 24 24 24 23 22 22 22 21 20 19 18 17 17 16 15 15 14 14 13 13 14 15 15 14 12 11 12 13 12 11 11 11 10 8 8 8 8
24 25 25 24 23 24 24 23 23 23 24 23 21 24 27 28 29 28 29 30 29 28 27 26 25 25 25 25 24 23 23 24 23 22 21 20 18 17 17 16 16 15 15 14 15 15 15 15 15 14 12 11 13 14 13 12 12 11 10 9 9 10 8
25 26 27 26 24 25 25 25 23 22 24 23 22 25 26 27 28 26 28 30 29 28 27 26 25 25 26 26 25 24 24 24 23 23 21 19 18 18 18 17 17 17 15 15 16 15 15 15 15 14 13 12 13 15 14 13 12 11 10 10 11 10 9
27 26 27 27 26 24 25 26 23 21 22 21 22 25 26 26 26 26 28 29 28 27 27 26 25 26 26 26 25 24 24 24 24 23 21 19 18 19 18 18 18 17 15 15 16 16 16 16 15 15 14 13 14 15 15 14 13 12 12 12 12 11 10
25 24 24 25 26 25 24 25 23 21 21 19 18 20 23 24 25 27 28 28 26 26 27 26 26 26 26 25 24 24 24 24 23 22 21 20 19 19 19 19 18 17 16 16 16 16 17 16 16 17 15 14 15 16 17 16 15 14 13 13 13 12 11
25 25 23 22 25 25 23 23 23 21 21 20 18 20 22 23 26 28 28 27 27 27 27 27 25 25 26 26 24 23 23 23 23 22 22 22 21 20 19 18 18 17 17 17 17 16 16 17 17 17 16 15 16 17 18 17 16 15 14 14 14 13 12
27 27 26 25 25 25 22 22 22 21 22 23 22 22 23 24 26 28 27 28 28 27 27 27 25 25 26 25 24 23 23 22 22 22 23 22 22 21 19 18 18 18 17 17 17 16 16 17 17 17 17 16 16 17 18 18 17 17 16 14 14 14 13
30 28 27 27 26 24 22 23 22 20 22 26 26 25 25 25 26 27 28 29 29 28 27 26 25 25 25 24 23 23 23 22 21 22 23 22 22 21 20 19 19 18 17 17 17 16 17 18 18 18 17 17 17 18 19 19 19 19 17 14 15 15 14
32 28 26 26 25 23 21 22 22 22 24 27 26 24 26 26 27 29 30 29 28 27 27 26 25 26 26 24 23 23 23 22 21 22 22 22 23 22 20 19 19 19 18 17 17 17 18 18 19 18 17 17 17 18 20 21 21 20 17 14 15 16 15
31 29 26 24 23 22 21 20 21 22 25 26 26 25 26 27 28 30 30 28 27 27 27 27 26 26 25 23 22 23 22 21 21 22 23 23 23 21 20 20 20 19 18 18 18 18 18 18 19 19 17 17 18 19 21 21 21 20 16 14 16 17 16
29 28 25 22 22 22 21 20 20 21 24 24 24 25 26 27 28 28 28 27 26 26 26 26 26 25 24 22 22 23 22 21 22 23 23 24 23 22 21 21 20 19 19 19 19 19 18 19 20 20 18 18 19 19 21 22 21 19 16 15 17 18 16
28 26 23 22 22 22 22 21 20 21 24 24 23 24 25 27 28 28 27 26 25 25 25 25 25 25 24 23 23 24 23 22 23 24 25 25 24 23 23 22 21 19 20 20 20 20 20 21 21 21 20 19 19 20 21 22 22 19 16 16 18 18 16
24 21 21 22 22 22 23 22 20 21 23 24 24 24 24 26 28 28 27 25 24 25 26 25 24 25 26 25 24 24 24 23 24 25 26 26 25 24 23 22 20 20 20 20 21 22 23 23 23 23 21 20 20 21 22 23 23 20 17 16 18 18 16
22 18 19 23 23 22 23 22 21 21 23 24 26 26 25 26 28 28 27 25 25 26 26 26 26 27 27 26 25 25 24 24 25 26 26 26 25 24 23 22 21 20 21 22 23 24 25 25 25 24 22 21 21 22 23 24 23 20 18 17 18 19 16
21 17 18 22 23 23 23 23 22 22 23 25 26 27 27 28 27 27 28 27 26 27 28 28 29 28 28 26 26 26 25 25 26 26 26 25 25 24 23 22 21 21 22 22 23 25 26 26 25 24 22 21 22 23 24 25 23 21 18 17 18 19 17
20 17 18 20 22 22 22 23 24 23 24 25 27 28 30 30 28 28 29 29 28 29 29 29 28 28 27 27 27 26 26 26 27 27 26 26 25 24 23 23 23 23 23 23 24 25 25 25 25 24 22 22 22 23 25 25 24 22 19 18 18 18 18
21 18 18 20 22 22 22 23 24 24 24 24 25 27 30 32 31 30 31 31 30 30 29 28 28 28 28 28 27 27 27 27 27 27 27 26 25 24 23 24 24 24 24 24 24 25 25 25 24 23 23 22 23 24 25 25 24 23 21 19 18 18 18
19 20 21 24 25 24 23 23 24 25 24 22 23 26 29 30 30 30 30 30 29 28 28 28 28 28 28 28 28 28 28 28 28 28 28 27 26 25 25 25 25 24 24 24 25 25 25 24 23 23 23 23 23 24 25 26 25 24 23 22 20 19 19
16 18 21 24 27 27 25 23 25 26 24 21 21 25 26 26 26 28 29 28 27 27 27 27 28 28 28 28 28 29 29 29 30 30 29 28 27 27 26 26 25 25 25 26 27 26 25 24 23 23 22 23 24 25 25 25 24 24 25 25 23 21 21
17 17 18 21 24 27 26 24 25 27 25 21 21 23 23 23 25 27 28 29 28 28 28 29 29 28 28 28 29 29 29 29 29 29 29 28 27 27 26 26 26 26 27 28 28 27 25 24 23 23 23 23 24 24 25 24 24 25 26 26 26 25 24
19 19 18 20 22 24 26 25 25 27 25 22 24 25 25 25 27 27 28 29 29 29 30 30 30 29 29 29 28 28 28 27 27 27 27 26 26 26 26 26 27 28 29 29 29 28 26 24 23 23 23 23 24 25 25 24 24 26 27 27 28 28 28
20 21 21 20 19 20 24 25 24 26 26 25 27 28 28 29 29 28 27 28 29 30 32 32 32 31 29 28 27 26 26 25 25 24 25 25 25 26 27 28 29 29 29 30 30 29 27 25 24 22 22 23 24 25 26 25 25 27 28 28 29 30 30
21 21 21 21 19 17 21 23 23 25 27 28 29 29 29 30 30 29 28 29 31 33 34 34 32 30 28 27 26 26 25 25 24 24 25 26 27 28 29 29 29 29 29 30 30 29 28 27 25 23 23 24 24 25 25 26 27 28 29 30 31 32 32
22 21 22 22 22 21 21 21 22 24 28 30 29 29 31 31 30 28 27 29 32 34 34 33 31 29 28 27 27 26 25 25 25 25 26 27 28 28 29 29 29 29 30 30 30 29 28 27 26 25 25 25 25 25 26 28 29 30 30 31 33 33 34
24 24 25 25 25 26 25 24 23 24 27 29 28 28 31 33 30 27 27 29 32 33 32 30 29 29 28 27 26 26 26 25 25 26 27 28 28 28 28 29 29 29 30 30 30 29 27 26 26 26 26 26 26 27 29 30 31 31 32 33 34 35 36
26 26 26 26 27 28 28 27 26 25 27 31 30 28 31 32 30 27 27 29 32 32 31 30 29 29 28 27 27 26 26 26 25 26 27 28 28 28 29 29 29 29 30 30 30 29 27 27 26 25 25 26 28 30 31 32 32 33 33 34 34 36 37
28 27 27 26 27 29 28 27 28 26 27 32 33 30 32 34 32 31 31 31 32 32 31 31 30 29 28 28 28 27 26 26 25 25 26 27 28 28 29 30 30 29 30 30 30 29 29 28 27 26 25 25 27 30 32 33 33 34 34 35 36 37 38
27 27 28 27 29 31 29 28 29 27 27 32 34 31 33 36 35 34 35 33 33 32 32 31 31 30 29 28 28 28 27 26 25 25 26 27 26 27 27 29 30 29 29 30 30 30 29 28 28 28 28 28 29 31 31 31 33 34 36 37 38 39 39
27 27 28 29 31 32 32 30 29 27 28 33 35 32 33 37 36 34 35 34 33 33 33 32 31 30 29 28 29 29 28 27 26 26 26 26 25 25 26 27 28 29 29 29 30 30 29 29 29 30 30 32 34 33 31 32 35 35 36 38 39 39 39
27 26 28 31 31 31 32 31 30 29 29 33 35 34 35 39 39 35 34 34 34 34 33 31 31 30 29 28 29 30 29 29 28 27 27 27 26 26 26 26 27 28 28 29 30 30 30 30 31 32 32 32 34 33 32 34 36 37 38 39 39 39 39
27 27 29 32 32 32 33 32 32 31 30 32 36 36 37 42 41 37 35 34 35 35 33 30 31 30 29 28 28 28 28 28 28 28 28 28 28 28 27 27 28 29 30 31 32 32 32 33 33 33 33 33 34 34 34 35 36 37 39 40 40 40 39
26 26 28 31 32 32 32 32 32 32 31 32 35 36 38 42 41 38 37 37 36 35 31 29 29 30 30 29 28 28 28 28 29 30 30 29 29 29 30 31 31 32 33 33 34 34 35 35 34 34 34 34 35 35 36 37 38 38 38 39 39 40 40
26 25 25 29 32 32 32 32 32 32 31 33 37 38 39 42 41 39 38 40 39 35 31 30 31 31 31 31 31 30 29 29 30 30 29 28 28 28 30 32 33 34 34 34 35 35 36 37 37 37 37 37 37 37 37 38 40 40 39 39 40 40 41
25 24 24 26 29 30 31 32 32 33 32 33 38 41 40 41 43 40 39 41 41 38 34 34 35 35 36 37 36 34 31 29 28 27 27 27 28 29 30 31 32 33 33 33 34 34 36 37 37 38 39 39 38 38 38 40 42 42 42 41 41 41 41
24 23 23 24 26 29 32 35 38 39 36 33 36 40 40 42 45 44 41 41 41 41 38 37 38 39 39 40 40 37 32 29 26 26 29 32 33 33 33 34 34 34 33 33 34 36 37 37 38 38 38 37 37 38 40 42 43 42 42 41 41 40 41
22 22 21 23 24 31 40 45 46 46 42 38 39 43 44 44 46 48 46 43 40 41 41 41 41 41 40 41 42 39 34 31 31 32 35 37 37 37 36 37 37 36 35 36 37 38 39 38 38 38 38 38 38 39 40 41 41 40 39 38 39 39 40
22 21 20 20 21 25 36 44 48 49 49 47 48 50 50 48 48 49 50 48 44 42 42 42 42 42 42 43 44 41 36 34 35 37 38 40 41 40 38 38 39 38 37 37 37 36 36 36 36 37 39 39 39 39 39 40 39 38 37 37 38 40 42

ECMWFFLT1_500_spd_060.txt.gz
Wind_Speed
28 28 28 27 26 25 23 24 23 20 20 21 21 21 21 23 25 28 28 26 26 26 26 27 26 25 25 25 24 24 24 25 25 24 22 21 21 21 19 18 18 17 16 15 15 14 14 14 14 14 12 12 14 15 15 14 14 13 12 13 13 12 12
31 29 28 27 27 26 24 23 21 19 20 21 22 22 22 24 25 27 27 26 26 26 26 27 27 24 25 26 25 25 25 25 25 24 23 22 22 22 20 19 18 17 17 16 16 15 14 14 14 14 13 12 15 17 16 15 15 14 14 14 14 13 13
32 31 29 27 26 26 25 24 22 19 19 20 22 23 23 24 25 26 28 27 27 27 26 27 26 23 26 28 26 25 26 25 24 24 24 23 23 22 20 19 18 18 17 16 16 14 14 14 14 15 15 14 17 19 17 16 15 15 15 15 14 13 13
32 32 32 30 28 27 26 26 24 21 20 21 22 23 23 24 26 29 31 31 30 29 28 29 26 25 28 30 27 25 26 26 25 25 25 24 23 22 20 19 19 18 17 17 16 15 15 15 16 17 17 17 18 20 19 17 17 16 15 15 15 14 14
30 31 32 32 30 29 27 27 26 23 21 23 24 24 23 23 26 29 31 31 31 30 30 30 27 27 30 30 27 26 26 26 26 25 26 25 24 22 21 20 19 19 18 17 16 16 16 16 17 18 18 17 19 20 20 20 19 16 15 16 15 15 15
27 28 30 31 31 30 29 28 27 24 22 23 24 23 23 23 27 30 28 28 30 29 29 29 27 27 28 28 28 27 27 27 27 27 27 25 24 23 21 20 20 19 19 18 17 17 17 17 18 18 18 18 19 21 21 21 20 18 16 17 16 15 15
26 28 29 30 31 31 31 30 27 25 23 22 22 24 25 25 28 28 24 25 29 29 29 28 28 28 28 28 28 28 28 28 28 28 27 25 24 23 21 21 21 20 19 18 18 18 18 18 18 19 18 19 20 22 22 22 22 20 18 18 17 16 16
26 28 29 30 30 31 30 29 28 26 23 21 22 24 25 26 26 24 22 25 28 30 30 28 27 28 29 30 29 28 29 29 28 28 27 25 25 24 23 23 22 21 20 19 19 19 19 19 19 19 19 20 21 23 22 22 22 21 19 18 18 17 17
26 27 30 31 31 30 29 29 30 28 24 22 23 23 24 26 27 26 25 27 29 31 31 29 28 29 31 32 31 28 29 30 29 29 27 26 26 24 24 24 23 22 21 20 20 20 19 19 20 20 20 21 22 22 22 23 23 22 20 20 19 19 18
29 28 30 33 35 33 31 32 32 30 27 24 24 24 25 27 29 29 28 28 29 31 31 30 30 31 32 33 32 30 29 29 29 29 27 27 26 25 25 24 24 23 22 21 20 20 20 20 21 21 21 22 22 23 23 24 24 23 22 21 21 20 19
28 27 27 29 31 32 32 33 32 31 29 26 25 25 26 28 29 30 28 27 29 30 29 30 32 32 32 32 32 30 28 27 28 28 27 26 26 27 26 24 23 23 23 22 22 21 21 21 22 22 22 23 23 24 24 24 25 25 23 22 21 20 19
25 24 23 23 26 29 31 32 31 31 31 28 26 26 27 27 28 28 27 27 28 29 28 29 32 32 32 31 30 29 27 27 28 28 27 26 26 26 25 24 23 24 23 23 22 22 22 22 22 22 22 23 24 25 24 25 26 26 25 23 21 19 19
21 20 21 23 26 27 29 30 30 31 32 30 27 26 25 26 27 29 28 28 29 29 28 29 31 32 31 29 29 28 26 27 28 27 27 26 25 25 25 23 23 23 23 23 23 22 22 23 23 23 23 24 25 26 25 26 28 27 25 22 20 19 19
16 15 17 22 27 27 27 27 29 32 32 31 29 26 25 26 27 28 29 29 29 31 31 31 31 31 30 28 28 28 27 27 28 27 26 25 25 25 24 24 24 23 23 24 24 23 23 23 23 24 25 25 26 27 26 27 28 27 25 22 20 19 20
12 12 15 20 25 27 26 24 26 29 30 30 29 26 26 27 27 26 29 31 30 31 32 32 31 30 29 28 28 29 29 28 27 27 26 26 25 25 25 25 24 24 24 25 25 24 23 23 24 25 25 26 28 28 27 27 28 27 26 23 20 20 21
11 12 16 20 22 25 25 24 23 25 27 29 29 27 26 28 28 27 28 30 30 31 32 31 29 29 29 29 29 29 29 28 28 28 27 27 26 25 25 25 24 25 26 26 26 25 24 24 25 25 26 27 29 28 28 28 28 27 26 23 21 21 21
12 12 17 21 22 22 24 23 23 23 25 27 27 27 27 28 29 28 27 28 29 30 31 31 29 29 30 29 29 29 29 28 28 28 27 27 26 26 26 26 26 26 27 27 27 26 25 25 26 25 26 28 29 29 28 28 28 27 25 23 22 22 22
14 13 15 20 23 22 23 23 23 22 24 26 26 26 27 28 29 29 28 28 28 29 31 31 30 29 30 30 30 31 30 28 28 28 29 28 28 27 27 27 28 28 27 28 28 27 26 26 25 25 26 27 28 29 28 28 28 27 26 25 24 23 22
15 14 15 17 21 21 21 22 24 24 25 26 27 27 28 28 29 30 29 28 28 29 30 31 31 30 30 30 31 31 31 30 31 31 30 29 28 28 28 28 29 28 27 28 28 27 26 25 24 25 26 27 28 29 28 28 28 27 27 26 25 24 24
16 16 16 17 18 18 18 18 22 25 27 27 28 29 28 28 29 30 30 29 29 30 30 31 32 31 29 29 30 31 31 32 32 32 30 29 29 28 28 28 29 28 28 29 29 27 25 24 24 25 26 27 28 28 28 28 27 26 27 26 26 26 25
18 17 17 18 19 19 18 17 18 22 25 27 29 29 29 28 28 29 30 30 31 32 32 32 32 31 29 28 29 30 31 32 32 31 30 29 29 29 28 29 29 29 30 30 28 26 24 23 24 25 26 28 28 28 28 28 27 26 26 26 26 27 26
22 20 18 19 20 20 20 19 19 20 23 26 29 29 29 29 27 28 29 30 32 33 32 31 32 31 30 29 30 32 32 32 32 31 30 30 29 29 29 30 30 30 29 28 27 25 24 25 25 26 26 27 28 28 28 27 27 26 26 26 27 27 27
25 23 21 20 20 20 20 19 19 20 21 25 27 27 28 28 27 27 29 29 30 31 31 30 32 32 32 32 33 33 33 32 32 31 31 30 30 30 30 29 29 29 28 27 27 26 26 27 27 27 26 25 26 27 27 26 26 27 27 27 27 28 28
25 25 24 22 21 21 20 18 18 18 18 21 24 25 27 27 26 26 27 26 27 28 30 31 32 33 33 34 34 34 33 33 33 32 31 31 30 30 29 29 28 28 28 29 29 29 29 29 29 29 28 27 26 26 25 25 27 28 27 28 29 29 29
26 26 25 24 23 23 22 20 18 18 17 19 22 24 26 26 26 26 26 26 26 28 30 32 33 34 34 35 35 34 34 34 33 31 30 30 30 30 29 29 30 30 30 31 31 31 30 30 30 30 30 29 29 29 27 27 28 27 27 30 31 31 31
27 27 27 26 25 24 23 22 22 23 22 21 22 23 24 26 27 28 29 29 30 31 33 34 33 33 34 34 35 35 35 34 32 31 31 31 30 30 31 31 31 32 32 33 33 31 31 31 31 31 31 31 31 31 30 30 30 29 29 32 32 32 32
27 29 28 28 27 25 24 25 25 26 26 26 25 24 24 26 28 30 31 31 33 34 35 35 34 33 34 34 34 35 36 34 33 32 31 31 30 30 31 31 32 32 33 33 32 31 31 31 31 31 32 32 32 32 31 31 31 31 31 33 34 34 34
27 28 28 28 27 26 25 26 26 26 27 29 28 26 26 28 29 30 32 32 33 35 36 35 33 33 33 34 35 36 36 35 34 32 31 30 30 30 30 31 31 32 32 32 32 32 32 32 32 32 32 32 32 32 31 31 31 31 31 32 33 33 34
28 29 29 28 26 26 26 27 28 27 28 29 29 28 28 29 30 31 33 33 34 37 39 37 33 32 33 34 36 37 37 36 34 32 30 29 29 30 30 30 30 31 32 32 32 31 31 32 32 32 32 32 32 33 33 33 33 32 31 32 31 31 33
28 30 30 29 27 25 26 28 29 29 29 30 31 30 30 30 31 32 35 36 36 39 41 40 35 33 32 34 36 37 37 37 34 32 30 29 30 30 30 30 30 31 31 31 30 30 30 30 31 32 32 32 33 33 33 33 34 34 34 34 34 34 35
27 29 31 31 29 27 26 27 29 30 31 31 32 32 33 32 32 32 35 37 38 40 42 42 39 36 33 33 35 36 36 35 33 31 30 30 31 31 31 31 31 31 31 31 30 29 28 29 30 31 32 32 33 34 34 33 34 35 36 36 37 36 34
26 27 30 31 31 29 27 27 29 31 32 32 32 33 34 34 33 33 34 37 39 41 43 45 44 39 35 34 35 35 35 33 31 31 31 32 33 33 33 32 32 32 32 31 31 30 29 29 30 31 32 33 33 34 34 35 36 36 38 39 40 39 36
27 27 28 30 31 30 28 28 29 31 32 33 33 34 36 36 34 33 34 37 41 43 44 47 47 40 35 35 35 34 34 33 31 31 31 32 34 35 34 33 33 33 33 33 32 32 31 31 31 32 33 34 35 35 36 37 38 39 39 40 41 42 41
30 28 28 29 29 28 27 28 29 32 33 33 34 36 37 37 36 34 34 37 42 44 44 46 46 41 35 35 35 34 34 33 31 29 29 31 33 35 35 34 33 32 33 33 33 34 34 34 35 35 36 36 37 37 38 39 39 40 41 41 42 43 43
31 30 29 30 28 27 26 27 29 31 32 34 36 37 38 39 37 35 35 37 40 43 45 45 45 43 40 38 37 36 35 34 32 30 30 31 33 35 35 35 33 31 31 32 32 33 34 35 35 36 37 37 37 37 38 38 39 40 41 42 43 42 42
33 31 30 31 30 27 25 25 26 27 29 31 36 38 39 39 39 37 38 41 42 44 46 47 46 46 44 42 41 40 38 38 36 34 33 34 35 35 35 34 33 31 32 33 35 36 37 37 37 36 37 37 38 38 40 41 42 43 44 44 43 41 40
34 33 31 31 30 28 26 26 24 24 25 26 32 40 42 41 41 41 42 45 47 47 49 49 48 48 47 46 46 44 42 41 40 38 37 37 38 39 36 33 33 34 35 37 38 39 40 41 40 39 39 39 40 42 44 45 46 46 46 45 43 42 42

ECMWFFLT1_500_spd_063.txt.gz
Wind_Speed
31 32 31 31 31 30 28 28 28 28 28 27 26 25 23 22 23 25 26 26 27 28 28 27 25 25 26 27 28 28 25 23 24 24 23 23 25 25 23 21 20 18 17 17 17 17 15 15 13 12 11 11 13 15 15 15 14 13 13 13 13 12 12
31 31 30 29 29 29 29 29 29 29 28 26 26 26 24 23 25 27 27 27 28 28 29 28 27 26 26 27 29 29 27 25 24 23 22 24 26 24 23 21 20 19 17 17 18 18 17 15 14 13 12 12 14 16 16 16 15 14 14 13 13 13 12
32 32 31 29 29 30 29 28 29 29 27 26 27 26 24 25 26 27 27 27 30 31 30 29 28 28 26 26 29 29 27 25 23 21 22 24 24 23 23 22 21 19 18 18 18 19 18 16 14 14 14 14 15 16 17 17 16 15 14 14 13 13 13
32 32 33 32 30 31 30 29 30 30 27 26 27 27 26 26 27 27 27 28 31 33 31 30 31 30 27 27 29 29 27 25 22 21 22 23 24 23 23 23 22 20 18 18 19 20 19 17 15 15 16 16 16 16 17 17 17 16 15 14 14 14 14
31 30 32 33 31 31 32 32 32 32 30 28 28 29 28 27 26 27 28 28 28 30 31 31 32 32 28 27 28 28 27 26 24 22 22 23 24 24 24 24 23 21 19 18 20 21 19 17 16 17 18 17 16 16 17 18 18 17 16 15 15 14 14
31 29 30 31 30 30 32 32 32 31 31 30 28 29 30 29 28 28 29 28 26 27 31 31 31 31 28 27 28 28 26 26 25 24 24 24 25 25 24 24 23 22 20 20 21 21 20 19 19 18 19 19 18 18 18 18 18 18 16 16 16 15 14
31 29 30 30 29 30 30 30 30 29 30 30 29 30 31 30 29 29 29 28 28 30 32 32 30 30 29 28 29 28 26 27 27 25 24 25 26 25 24 24 24 23 21 21 22 22 22 21 20 20 20 20 19 19 19 19 18 18 17 17 17 16 15
30 30 32 32 29 29 29 28 29 29 29 29 30 32 33 30 28 28 29 29 30 30 29 30 31 31 30 30 30 29 27 28 28 26 25 26 26 25 25 24 25 23 22 22 23 23 23 22 21 21 21 21 21 21 20 19 19 19 18 17 18 17 16
28 29 31 32 30 29 28 28 30 30 29 28 29 31 33 31 28 28 28 29 29 27 24 25 30 32 31 31 32 31 29 29 29 27 26 27 26 25 25 25 26 25 24 24 24 24 24 23 22 22 22 23 22 22 21 20 20 20 19 18 18 17 16
27 28 31 32 32 30 29 29 30 31 30 29 29 29 31 30 28 27 27 28 29 28 26 24 28 30 31 31 31 30 30 30 30 28 27 27 26 26 26 27 27 27 26 26 25 25 24 24 23 23 23 23 23 23 22 21 20 21 20 18 18 18 17
25 27 29 31 32 31 31 31 31 32 33 32 30 30 30 30 29 27 27 28 29 29 28 26 27 29 30 31 30 29 29 30 30 28 27 27 26 26 26 27 28 27 26 26 27 26 25 24 24 24 24 23 23 23 22 21 22 22 21 20 19 18 18
24 25 28 30 31 32 32 31 31 33 34 34 32 30 30 31 30 30 28 29 30 31 30 29 28 29 30 30 30 30 30 30 29 29 27 26 26 26 26 27 28 27 26 26 27 26 26 25 25 25 24 24 24 24 23 22 23 23 22 21 20 19 19
24 24 26 28 29 31 32 32 30 31 33 35 33 29 28 29 30 30 28 28 30 30 30 31 30 29 30 32 33 32 31 29 29 29 28 27 27 26 26 27 27 27 26 27 27 27 27 26 25 25 25 24 24 23 23 23 24 24 24 22 21 20 20
26 25 25 26 26 29 31 31 28 29 32 34 33 30 27 26 27 29 28 27 28 28 28 30 30 28 30 34 36 34 31 30 29 29 29 28 27 27 27 28 28 27 27 27 27 27 27 27 26 26 25 24 23 23 24 24 24 25 25 24 23 22 22
26 25 24 24 24 25 26 25 25 28 31 31 31 30 28 26 26 27 27 27 28 28 28 29 28 28 29 32 35 35 32 30 29 29 30 30 29 29 29 29 28 28 28 28 28 27 27 27 26 26 24 23 23 23 24 25 25 25 26 25 24 23 23
25 24 23 24 23 21 20 21 23 27 29 27 28 29 28 28 28 27 27 27 27 28 29 29 28 29 30 31 34 34 31 29 30 31 32 32 31 31 30 29 29 29 29 28 27 27 27 28 27 25 24 23 22 24 25 26 25 26 26 26 25 24 24
24 22 22 23 23 20 18 20 22 25 27 27 27 28 27 27 26 27 27 27 27 28 29 29 30 30 31 32 33 31 29 30 32 33 32 32 31 31 30 29 29 29 29 28 27 27 28 28 26 25 23 23 23 24 26 26 25 26 27 27 26 25 23
24 23 22 22 22 20 18 18 20 22 24 25 25 26 27 26 25 25 26 25 27 29 29 29 29 29 31 33 32 30 28 30 31 32 33 32 31 30 30 30 30 29 28 27 27 27 27 26 24 22 22 23 25 26 26 26 25 26 27 28 27 25 24
24 23 22 22 22 21 18 16 17 19 20 22 23 25 26 26 27 27 26 24 26 28 29 29 29 30 31 34 34 32 29 30 31 33 33 32 31 31 31 31 30 29 29 28 27 27 27 26 24 23 24 25 26 26 26 26 25 25 27 27 27 26 25
25 24 23 22 22 21 19 16 16 17 18 19 22 25 26 28 29 29 28 27 26 28 29 29 30 31 32 33 36 36 33 32 34 34 33 31 31 32 32 31 30 30 30 29 28 28 27 27 25 25 26 27 27 27 27 27 26 26 27 27 27 28 27
25 25 24 24 23 22 21 19 17 17 17 17 19 22 25 28 29 29 29 29 29 29 29 31 32 31 31 32 34 36 35 34 34 33 32 31 32 32 31 31 31 31 30 29 29 28 27 26 25 26 28 29 28 28 27 28 27 27 27 26 26 29 28
25 25 24 24 24 23 22 22 21 20 19 18 19 20 23 27 29 29 28 30 31 30 29 31 33 32 31 32 33 35 35 34 34 34 33 34 35 34 32 32 32 32 30 30 29 28 28 27 26 27 29 30 30 29 28 28 28 27 27 26 26 27 28
24 24 24 24 24 24 23 22 22 22 21 19 19 20 22 25 28 29 29 30 30 30 29 30 32 33 33 32 32 35 36 36 35 35 35 36 36 35 34 32 31 31 31 31 30 29 29 28 28 29 30 30 30 29 29 29 28 28 29 29 27 25 25
24 23 23 23 24 24 24 23 22 23 23 21 20 20 22 24 26 28 29 29 30 29 29 30 31 33 34 34 33 34 35 37 36 35 34 35 35 35 35 34 33 32 32 32 31 31 31 30 30 31 31 30 30 29 29 29 28 28 29 30 29 26 26
26 24 23 23 24 24 24 23 23 23 23 23 22 21 20 21 24 25 26 28 29 29 30 31 32 33 34 36 36 35 36 38 37 35 33 34 34 35 35 35 35 34 33 32 32 32 32 31 31 31 31 31 31 30 31 31 30 29 30 30 29 28 29
29 27 25 24 24 24 25 24 24 23 23 24 24 22 21 20 21 24 25 27 28 29 29 29 30 32 34 37 37 36 37 39 37 34 33 34 34 35 35 35 34 33 33 34 33 33 32 31 31 31 32 32 32 32 32 32 31 30 31 31 30 30 31
31 30 27 25 24 24 24 25 25 24 24 24 24 24 24 22 21 22 24 26 28 28 28 28 27 28 30 32 33 33 34 36 35 34 34 34 35 35 35 34 33 33 34 35 34 33 32 31 31 31 32 33 33 34 34 34 33 32 31 32 32 32 32
32 32 30 27 25 24 24 24 25 25 25 25 25 26 26 26 25 23 23 26 28 29 30 30 30 28 28 28 29 30 31 33 34 35 35 35 35 35 35 35 34 34 35 36 34 34 32 32 32 32 33 33 34 35 35 35 34 33 33 33 33 33 32
32 33 32 30 28 26 25 24 24 25 25 25 26 26 27 27 27 27 26 27 29 30 31 32 33 33 32 31 30 31 33 34 35 36 36 36 36 35 35 36 36 35 36 36 35 34 34 33 33 33 33 33 34 34 35 35 35 34 34 34 34 34 33
31 32 33 32 30 28 27 26 25 25 25 26 26 27 27 27 27 28 29 30 31 31 31 32 34 36 36 34 33 33 35 36 36 37 37 37 36 35 36 36 34 34 36 38 37 36 35 34 33 33 32 33 33 34 35 35 35 35 35 35 35 35 35
30 31 32 33 32 30 29 29 28 27 26 26 26 27 27 27 28 29 31 32 33 33 33 33 34 35 36 35 34 35 37 37 36 36 37 37 36 35 36 36 35 35 37 38 37 36 35 34 33 32 32 31 32 33 35 35 36 36 36 37 37 37 37
31 30 31 33 33 33 31 30 30 29 28 27 27 27 28 28 29 29 31 33 34 35 36 35 34 34 35 35 35 36 38 38 36 35 36 36 36 36 37 38 38 39 40 39 38 37 36 34 33 32 31 31 31 32 33 34 36 36 37 37 37 37 37
32 31 31 32 33 33 33 32 31 30 29 28 28 28 29 29 30 31 33 34 35 36 37 37 36 35 36 36 37 39 40 40 38 36 35 35 36 37 38 39 40 41 42 41 40 38 36 35 35 34 32 32 31 31 32 33 35 36 37 37 37 37 38
34 33 32 32 32 32 33 34 32 31 30 29 29 29 30 31 32 33 35 35 35 37 38 37 36 35 35 37 38 40 42 43 42 40 38 37 37 38 38 39 40 41 42 42 41 40 38 37 36 35 35 34 33 32 32 33 34 35 37 38 38 39 39
38 37 35 34 33 32 32 33 34 32 30 29 29 29 30 32 33 34 36 36 36 37 38 38 38 36 35 37 39 40 42 44 45 45 42 39 38 38 39 39 39 40 41 41 41 41 40 38 37 37 36 35 35 35 36 35 36 37 38 39 40 41 41
40 40 39 37 35 33 32 32 33 33 31 29 29 29 30 32 33 34 36 38 37 37 38 39 39 38 38 40 42 43 44 45 46 46 43 40 39 39 38 38 39 40 41 42 42 42 41 40 38 37 36 36 37 37 38 38 38 38 39 40 41 42 43
42 42 41 40 38 36 34 32 32 33 32 30 29 29 30 32 32 33 35 37 39 39 40 41 41 40 41 43 46 48 49 48 48 47 42 40 40 39 38 37 38 38 39 40 41 41 41 41 40 39 37 37 38 38 39 38 38 39 40 40 41 42 43

ECMWFFLT1_500_spd_069.txt.gz
Wind_Speed
24 25 26 27 27 28 28 30 31 30 29 28 29 31 32 32 33 34 33 31 30 31 31 31 29 29 30 30 30 29 30 30 28 27 28 29 29 28 25 23 22 22 21 21 21 20 20 20 19 18 18 17 16 16 16 15 13 11 9 8 9 10 11
25 25 26 27 27 28 28 29 31 32 32 32 32 34 35 36 35 35 34 33 32 32 32 32 30 29 29 30 30 29 28 29 29 28 29 29 29 29 28 24 23 23 22 22 22 21 21 21 20 19 19 19 18 17 17 16 14 11 9 9 9 10 11
25 25 26 27 28 28 29 29 31 32 34 35 36 37 39 40 39 38 36 35 34 32 32 34 34 32 30 29 30 28 27 29 29 29 28 28 28 29 30 26 25 25 24 23 22 22 22 23 23 21 20 20 19 19 18 17 15 13 10 10 10 10 11
25 26 27 28 29 30 30 30 32 33 35 36 37 37 39 40 40 40 39 36 35 34 33 34 35 36 33 29 29 29 28 29 30 30 29 29 28 29 31 29 26 25 24 23 22 22 24 25 24 23 21 21 20 19 19 18 16 14 12 11 11 11 12
25 26 27 28 30 31 32 32 33 34 35 36 37 37 37 38 40 41 40 38 36 35 34 34 34 37 36 32 30 30 30 30 31 32 31 30 29 31 33 31 27 26 26 24 21 23 26 26 25 23 23 23 21 20 20 19 18 17 14 12 12 12 12
26 28 29 29 30 31 32 33 34 35 35 36 37 38 38 39 40 42 42 41 38 37 36 35 35 37 38 36 32 30 30 30 31 33 33 32 32 32 33 33 29 29 28 23 22 25 28 27 26 24 24 23 22 21 21 20 19 19 16 14 13 12 13
27 28 29 30 30 31 33 34 35 36 36 35 37 39 39 40 41 42 43 42 40 39 38 36 36 37 39 38 34 31 31 31 31 32 32 33 34 33 34 34 32 29 27 24 25 27 28 27 27 26 24 23 22 22 22 21 20 20 18 16 14 13 13
28 29 30 31 31 32 33 34 35 37 37 36 37 39 40 41 41 43 44 43 41 40 39 37 36 37 38 39 36 33 32 31 31 30 29 31 34 35 34 34 34 30 27 27 29 29 28 28 27 27 26 24 24 23 23 23 22 21 20 19 17 15 14
29 30 31 32 32 33 33 34 35 37 37 38 39 41 41 41 41 42 42 42 41 40 39 37 36 36 38 39 36 34 33 32 31 30 30 30 33 36 35 34 36 33 29 30 32 29 28 29 29 29 28 27 26 25 24 24 24 22 21 21 19 17 15
30 30 31 32 33 33 34 34 35 36 38 39 40 41 42 42 42 41 40 39 39 40 38 36 35 35 36 37 36 34 34 33 31 31 31 30 32 36 36 35 36 34 31 32 31 29 29 29 30 30 29 28 27 26 25 25 25 23 22 23 21 18 16
31 31 32 33 33 34 34 35 35 36 37 38 40 41 42 42 42 41 40 38 37 37 37 36 35 35 35 35 36 35 34 34 32 31 30 29 32 36 37 36 35 33 33 32 32 31 30 29 30 30 29 28 27 26 26 26 26 25 24 25 23 20 18
31 31 32 33 33 34 34 35 35 35 36 37 38 39 40 42 42 41 40 38 36 36 36 36 36 36 35 35 35 36 35 34 33 31 30 30 32 35 38 37 35 34 34 33 33 34 32 29 29 29 28 28 28 27 28 27 26 26 26 26 25 22 20
32 32 33 33 34 34 34 34 34 33 33 34 35 36 37 39 40 40 39 36 36 37 37 37 36 35 35 34 35 36 35 34 33 31 31 32 32 35 38 38 37 36 35 34 34 35 35 32 30 29 29 29 28 27 28 28 27 27 27 27 26 24 21
32 33 34 34 34 34 33 34 34 32 32 33 34 35 35 36 36 37 37 35 34 35 35 35 35 34 34 34 35 34 33 33 32 31 31 31 31 33 36 36 36 36 34 34 34 35 35 33 30 29 29 29 28 28 28 29 29 28 28 27 25 24 22
33 34 35 35 34 34 33 33 33 33 32 32 33 34 33 33 34 35 35 33 32 31 32 34 34 34 35 35 34 33 31 31 31 30 31 30 30 31 33 34 35 34 34 34 34 34 34 33 31 30 28 27 28 29 30 30 29 29 28 26 25 25 23
34 35 35 34 33 33 33 33 33 33 32 32 32 33 33 32 32 32 33 32 31 29 30 32 34 34 35 35 34 32 31 30 30 31 30 29 29 31 32 33 34 34 33 34 34 33 33 33 32 30 28 28 30 31 31 30 29 28 28 27 26 26 25
34 34 33 33 32 33 33 33 33 32 31 31 31 32 32 32 31 31 31 31 31 30 29 30 31 32 33 33 33 32 32 31 29 29 29 29 30 33 34 36 36 34 33 34 34 33 33 33 32 31 30 32 33 33 32 29 28 27 27 27 27 27 26
33 32 32 32 32 33 33 33 33 32 31 31 30 31 32 32 31 30 30 30 29 30 30 29 29 31 31 32 32 31 32 32 29 28 27 27 31 34 35 36 35 32 32 33 34 34 34 34 34 34 34 34 34 35 33 28 27 28 27 27 27 28 27
31 31 31 31 32 33 33 33 33 32 31 30 30 30 31 31 31 30 29 28 27 28 30 29 28 29 30 31 32 31 32 32 31 29 27 26 29 35 36 35 34 32 33 35 35 36 35 35 36 36 35 34 34 34 31 26 26 28 28 27 27 29 28
31 31 31 32 32 32 33 33 32 32 32 30 29 30 30 31 31 30 30 28 26 26 29 29 29 28 28 30 32 31 31 32 32 30 29 26 28 32 36 37 37 36 36 37 36 36 37 38 38 36 35 35 35 33 30 27 27 28 28 27 28 30 30
33 34 33 32 32 32 33 33 32 32 32 31 29 29 30 31 31 31 31 29 26 26 26 27 29 28 27 28 30 31 32 34 33 31 30 30 29 31 34 36 38 37 36 37 36 38 41 41 38 36 35 36 35 32 30 30 29 29 29 27 28 31 31
35 35 34 32 32 32 33 33 33 32 32 31 29 28 29 30 31 32 32 30 27 27 26 26 28 30 28 27 29 32 32 33 34 32 30 31 31 32 34 35 36 35 35 37 39 42 44 41 38 35 35 35 34 31 31 31 31 32 32 30 29 31 31
35 35 34 33 33 33 34 34 34 32 32 32 31 29 29 30 31 31 32 31 29 30 29 27 27 29 30 29 29 31 31 32 34 33 32 32 31 32 34 35 35 34 34 37 40 41 42 40 37 36 35 35 34 32 32 33 33 34 34 32 31 33 31
36 36 36 35 35 35 35 36 36 34 33 34 34 32 31 31 31 31 31 31 31 31 32 30 29 29 29 28 28 30 30 31 34 34 33 34 33 31 33 34 35 35 37 39 40 41 41 39 37 36 35 35 35 34 33 33 33 34 34 33 34 34 33
38 38 38 38 38 38 38 37 38 37 35 35 36 35 33 32 32 31 31 31 31 31 32 32 32 31 29 27 27 30 30 30 33 35 33 33 33 33 34 35 37 39 40 40 40 40 39 37 36 36 35 34 35 34 32 32 34 34 34 34 35 33 32
39 39 40 40 40 40 39 38 39 39 38 36 36 36 35 32 32 32 31 31 31 31 31 31 32 32 30 28 27 28 30 29 31 33 33 33 33 34 36 36 36 38 39 38 38 38 36 36 36 36 35 34 34 33 33 35 37 36 35 35 35 33 32
41 41 41 41 41 41 40 38 38 38 38 37 36 37 35 33 32 32 32 31 30 30 29 30 31 31 31 30 27 27 30 30 29 30 32 34 34 35 36 35 35 37 36 34 34 36 36 36 36 36 35 34 35 36 37 39 39 37 36 36 35 35 34
42 42 43 42 42 41 39 38 38 37 37 36 36 36 36 33 32 32 32 32 31 30 29 29 30 30 30 29 28 27 28 31 31 29 31 33 34 34 35 35 34 36 36 35 34 35 36 37 37 36 35 35 38 39 39 38 37 37 37 36 36 36 35
43 43 44 43 43 42 41 39 38 37 36 35 34 35 36 34 32 32 33 32 32 31 30 29 30 30 29 29 29 28 27 29 30 30 30 32 32 33 34 34 33 35 37 37 35 35 35 36 35 34 34 36 39 40 39 38 38 37 37 37 37 37 36
43 43 44 43 43 43 42 41 40 38 37 36 34 34 36 35 33 32 32 33 32 32 31 30 30 30 30 30 30 30 27 27 28 29 30 32 33 33 34 33 33 34 34 33 33 35 34 33 33 34 35 37 39 40 39 39 38 38 38 38 38 38 37
43 43 43 43 43 43 43 42 41 40 39 38 37 35 35 36 34 32 32 32 33 33 32 31 31 30 30 30 31 31 29 28 28 30 30 30 31 33 35 35 35 35 34 33 34 36 35 35 37 37 37 38 40 39 39 39 38 38 39 38 39 39 38
43 43 43 43 43 43 43 43 42 41 41 40 39 38 37 37 36 35 33 33 33 33 33 33 32 31 31 31 31 31 31 30 30 30 30 31 31 33 35 35 35 34 34 35 38 39 39 40 39 38 38 39 40 39 38 38 38 38 39 39 39 39 39
45 45 46 46 46 46 46 45 45 44 43 43 42 41 39 38 38 37 36 35 35 34 34 34 34 33 32 31 32 32 32 32 31 31 31 31 33 35 36 34 32 33 34 36 38 40 41 40 37 37 39 39 38 39 39 38 39 39 39 39 39 39 40
46 46 46 46 47 47 47 47 47 47 46 45 44 44 42 41 40 40 38 37 36 36 35 35 35 35 34 33 33 33 33 33 33 32 33 32 33 35 37 37 37 37 37 37 38 39 39 38 34 35 38 39 40 41 40 39 40 40 39 40 41 41 41
46 47 47 47 47 47 47 47 47 47 47 46 44 44 44 43 42 42 41 40 38 38 37 37 36 36 35 35 35 35 34 33 33 34 35 35 34 35 37 40 42 41 40 40 41 40 38 35 34 35 38 40 42 42 40 39 40 41 41 41 41 41 41
47 48 48 49 49 48 48 48 48 48 48 48 46 45 44 43 43 43 43 43 41 39 39 39 38 37 36 36 36 37 36 35 34 35 37 37 37 38 38 40 43 44 43 42 43 42 40 37 36 38 40 41 41 40 40 41 42 42 42 42 41 42 42
47 47 48 49 49 49 49 49 49 49 48 49 49 47 46 44 43 42 42 43 43 41 40 40 39 39 38 37 37 38 38 37 37 37 39 39 39 40 40 40 43 44 43 42 42 41 41 40 40 41 42 42 41 41 42 43 42 42 42 42 43 44 45

ECMWFFLT1_500_spd_072.txt.gz
Wind_Speed
21 22 23 23 24 25 26 26 27 27 29 31 32 32 32 33 33 34 35 34 33 33 32 30 29 28 28 28 28 30 31 31 31 29 28 29 27 28 29 28 28 28 28 26 25 24 22 21 21 20 20 20 18 16 16 16 15 14 13 12 11 10 9
21 22 22 23 24 25 26 27 28 28 29 30 32 34 34 34 35 36 37 36 36 36 34 32 30 29 28 28 29 30 29 30 31 31 30 29 28 27 29 28 28 29 29 28 27 26 25 23 23 21 20 20 19 17 17 17 17 16 15 13 12 11 10
21 22 22 23 24 25 26 27 28 28 29 30 32 34 35 34 35 36 37 36 37 38 36 34 32 31 30 29 29 30 30 30 31 32 31 29 28 27 27 28 28 28 30 30 28 27 27 25 24 23 22 21 19 18 18 18 18 18 16 14 14 13 11
22 22 23 23 24 25 26 28 29 29 29 30 31 34 35 35 35 36 36 36 37 38 37 37 35 34 33 31 30 31 31 31 32 33 32 30 28 26 27 28 28 28 31 33 30 28 28 26 24 24 23 22 20 19 19 20 20 19 17 16 15 14 13
23 23 23 24 25 26 28 29 30 30 29 29 30 33 35 36 36 37 37 36 36 38 38 38 37 36 35 34 32 32 33 32 32 33 32 31 28 26 27 28 28 28 30 32 32 30 29 28 25 24 24 23 21 21 20 20 21 20 19 18 17 16 14
24 24 25 25 26 28 29 30 31 31 30 30 30 32 34 36 37 37 39 38 37 39 40 39 37 36 36 36 34 33 34 34 33 33 32 31 29 27 27 29 29 29 29 32 32 32 30 29 27 25 25 24 22 23 23 22 22 22 21 20 19 18 16
25 26 27 27 28 29 30 30 31 32 32 31 31 32 33 35 37 37 39 39 39 40 41 40 38 38 36 34 33 34 34 34 33 32 32 31 29 28 28 29 29 30 31 33 33 33 32 29 28 27 25 24 24 24 24 24 24 23 23 22 21 19 18
26 27 28 29 29 30 30 30 31 32 32 32 31 32 33 34 37 38 39 40 39 40 41 40 39 40 38 35 33 33 33 34 33 32 31 31 30 28 28 29 29 30 32 34 33 34 34 30 29 29 26 26 25 25 26 26 25 25 24 23 22 20 19
27 28 29 29 30 30 30 30 30 30 31 31 31 32 33 35 37 39 39 39 39 39 40 39 38 39 39 37 35 33 32 33 33 32 31 31 30 29 30 30 29 29 30 33 33 35 35 32 30 30 29 28 27 27 28 27 26 26 25 23 22 21 20
29 29 30 30 30 30 30 30 29 29 30 31 31 32 34 36 37 38 38 37 38 38 39 38 36 36 37 37 36 34 32 32 32 31 30 31 31 31 31 29 28 29 29 32 34 36 36 33 30 30 30 29 28 28 30 29 28 28 26 23 23 22 21
30 30 31 30 30 31 31 31 30 29 30 31 32 33 34 35 35 35 35 36 36 37 37 36 35 33 34 36 34 32 32 32 31 30 30 31 31 31 31 28 28 30 30 31 34 36 37 34 32 33 32 30 29 30 30 29 29 28 26 25 24 24 23
31 31 31 31 31 31 31 31 31 30 31 32 33 33 34 34 33 34 34 35 35 36 35 34 33 32 33 34 33 31 31 33 32 31 31 31 31 32 31 29 29 30 31 31 32 36 38 36 34 34 33 31 31 31 29 30 30 28 26 27 27 25 24
32 32 32 32 32 31 31 31 31 31 32 33 33 32 33 33 33 33 34 34 35 35 34 32 31 31 32 32 31 31 31 32 33 32 31 31 31 31 31 30 30 30 31 31 32 35 38 38 36 35 34 33 32 30 30 31 30 28 28 29 28 25 25
32 32 32 32 32 32 32 32 32 32 32 33 32 32 32 32 33 34 34 34 34 35 35 32 29 29 29 29 29 30 31 32 33 32 31 31 31 31 31 30 30 31 31 31 32 36 39 39 38 36 35 35 33 32 33 32 29 29 30 31 29 27 26
33 33 33 33 33 33 33 33 33 33 33 32 31 31 32 32 33 33 33 34 35 35 35 34 31 28 27 26 26 28 31 32 33 33 32 31 31 31 31 29 30 31 31 32 34 36 39 40 39 38 37 36 35 35 36 35 31 29 30 30 29 28 28
33 33 33 33 33 33 33 34 34 34 33 32 31 32 32 32 32 33 34 34 35 34 33 33 32 30 27 25 24 27 30 32 33 33 33 33 31 31 31 30 31 32 32 34 36 37 40 41 40 39 37 37 37 37 37 36 33 31 29 29 30 29 29
33 34 33 33 33 33 34 34 34 34 33 32 32 33 33 33 33 34 34 35 35 34 33 32 32 30 28 27 25 26 28 30 32 33 33 34 32 31 31 30 31 32 33 35 37 39 41 42 42 41 37 36 37 38 37 36 35 34 32 31 32 32 30
34 34 33 33 33 33 34 34 34 34 34 35 35 34 33 33 33 34 34 35 35 34 33 33 32 32 32 31 29 27 28 28 29 30 31 33 33 32 31 29 30 32 33 34 35 39 41 40 41 41 37 35 37 38 38 39 38 36 33 33 34 33 31
34 34 34 33 33 33 34 35 35 36 37 37 36 35 33 32 33 34 34 35 35 35 34 33 33 33 34 34 30 28 28 27 25 27 30 31 33 34 31 29 29 30 31 32 33 36 38 38 39 39 37 36 37 39 39 39 37 35 33 33 34 34 31
34 34 34 34 34 34 35 36 37 38 38 38 37 35 34 33 33 34 34 35 36 35 35 34 33 34 35 34 32 30 30 29 25 25 28 30 32 34 32 29 29 30 30 32 34 36 36 37 38 38 38 38 39 40 39 36 35 35 33 32 35 37 32
35 35 35 35 35 35 36 37 38 38 39 39 38 37 36 35 35 35 36 36 36 36 35 35 34 34 35 35 33 33 32 31 28 26 27 28 30 32 32 31 31 31 31 33 37 38 38 39 39 39 39 40 40 40 38 37 37 36 34 34 37 37 32
37 37 37 36 37 37 38 38 39 39 40 40 40 39 38 37 37 38 38 39 38 37 36 36 35 34 35 35 34 34 32 31 31 28 26 27 27 30 32 32 32 32 33 33 36 39 40 41 41 40 39 40 40 38 38 39 39 38 36 37 39 36 31
39 39 39 39 40 40 40 40 41 41 42 42 42 42 41 41 41 41 41 41 40 39 37 36 35 34 34 35 36 34 32 32 32 29 27 26 27 30 32 33 32 33 33 33 34 37 39 41 41 40 39 39 39 38 38 40 40 40 40 40 40 36 32
41 41 41 41 41 41 42 42 43 43 44 44 44 44 44 43 43 43 43 42 42 41 38 37 36 34 33 34 36 35 32 31 31 30 28 27 28 31 32 32 32 33 32 33 35 36 38 40 41 41 39 39 39 39 39 41 41 42 43 41 40 36 32
41 41 41 41 41 42 42 43 44 44 45 45 46 46 45 44 44 44 44 43 43 42 39 37 36 35 33 33 34 34 32 30 30 31 29 26 26 31 33 33 33 32 32 33 34 35 37 39 40 40 40 40 41 40 40 41 41 41 42 40 39 36 32
41 41 42 42 42 43 43 44 44 45 45 45 46 46 46 46 45 44 44 44 43 42 40 37 36 35 33 33 33 33 32 30 29 30 30 26 25 28 31 33 34 33 32 32 31 31 34 37 38 39 39 39 39 39 40 42 43 41 41 40 40 37 33
42 43 43 44 44 45 45 45 45 45 46 46 46 46 46 46 46 45 44 44 43 42 41 38 36 35 33 32 32 32 32 30 29 29 29 28 26 26 29 32 35 34 32 31 31 31 32 35 36 37 37 38 38 39 41 43 43 41 40 40 39 37 34
44 45 45 46 46 46 46 47 47 47 47 47 47 47 46 46 46 45 45 44 43 42 41 40 38 36 34 32 32 32 31 30 29 29 28 28 27 26 28 30 33 33 31 31 32 32 33 35 36 37 38 38 39 40 41 42 41 40 41 41 40 40 38
45 45 45 46 46 46 47 47 47 47 47 47 47 47 47 46 45 45 44 44 44 43 42 40 39 37 35 32 31 32 31 30 29 29 28 28 28 27 28 29 30 31 32 33 33 32 33 33 34 36 38 39 39 40 41 42 41 40 41 41 41 41 39
44 44 45 45 45 46 46 47 47 47 47 47 47 47 47 46 45 44 44 44 44 43 43 41 39 38 36 33 31 31 32 31 31 29 28 27 28 28 28 29 30 30 31 33 34 34 33 32 33 36 36 35 37 39 40 40 41 41 42 41 40 40 39
45 45 45 46 46 46 47 47 48 48 48 47 47 47 47 46 46 45 43 43 44 44 43 43 41 39 37 35 32 31 32 32 32 31 29 27 27 28 29 29 31 32 31 30 32 35 35 33 33 36 37 36 38 40 40 40 41 42 43 42 40 39 38
46 46 47 47 47 47 47 48 48 48 48 48 48 48 48 48 48 47 45 44 44 44 43 43 43 41 39 38 35 33 32 32 32 32 31 29 28 28 29 29 29 31 32 30 30 34 36 35 34 35 37 39 41 41 42 42 41 43 44 42 40 39 38
47 47 48 48 48 49 48 48 49 49 49 49 49 48 48 49 49 48 47 46 45 45 44 44 44 43 41 40 38 36 34 33 33 33 32 32 31 30 30 30 29 29 31 30 29 30 32 34 35 36 37 40 41 41 41 41 42 42 42 41 39 39 39
48 49 49 50 50 50 50 50 50 50 50 50 50 50 50 50 50 50 49 48 46 46 45 44 44 44 43 41 40 38 36 35 34 34 33 33 33 32 31 30 30 30 30 30 29 29 28 30 33 35 35 37 39 39 39 40 41 41 41 40 39 38 39
48 49 49 50 50 51 51 51 51 51 51 51 51 51 51 51 52 51 51 50 49 47 46 45 44 44 44 43 42 40 39 37 36 35 34 34 35 34 33 31 30 30 31 31 31 30 29 29 30 32 33 33 33 35 37 38 38 39 39 39 39 40 40
47 48 49 50 50 50 51 51 51 51 51 50 50 51 51 51 52 52 52 52 52 50 48 46 46 45 44 44 43 42 41 39 38 37 36 35 36 35 35 34 32 31 32 32 31 31 32 31 30 32 34 34 32 33 35 37 39 40 39 38 37 39 40
48 48 49 50 51 51 51 52 52 52 51 51 50 50 50 50 50 51 52 52 52 51 50 48 46 46 44 44 44 43 42 41 40 39 38 37 37 37 36 35 34 33 34 34 33 33 34 33 32 33 36 36 35 35 37 39 41 41 39 39 39 38 38

ECMWFFLT1_500_spd_075.txt.gz
Wind_Speed
22 23 23 23 22 22 22 22 22 23 25 26 25 26 26 26 26 27 27 26 26 26 26 26 26 27 27 27 27 28 28 28 28 29 29 28 27 25 24 22 22 22 23 25 28 28 26 25 25 24 23 23 22 21 20 19 18 17 17 16 14 13 13
23 23 23 23 23 23 23 23 23 23 24 26 27 28 28 26 26 27 27 27 26 26 26 27 27 28 28 29 29 30 31 31 30 30 30 30 29 28 27 24 23 23 23 25 28 28 26 26 27 26 25 24 23 22 22 22 21 19 19 17 15 14 14
24 24 24 24 24 24 23 23 23 23 24 25 26 29 30 29 27 27 27 27 26 26 27 28 29 30 29 29 30 31 32 31 30 31 32 31 30 30 30 28 26 24 23 24 27 27 27 28 29 28 28 26 24 25 25 24 23 20 20 18 16 15 15
25 25 25 25 25 24 24 24 24 24 24 24 25 27 29 31 30 29 29 29 28 28 27 28 30 31 30 29 30 31 31 31 30 30 31 31 31 31 31 30 28 26 23 22 25 27 27 28 29 30 30 29 27 27 26 25 23 22 21 19 17 17 17
25 25 25 25 25 25 25 25 25 25 24 24 25 26 28 30 30 30 30 30 30 30 31 31 31 31 31 30 30 30 31 33 32 30 29 31 31 31 31 31 30 28 24 23 24 26 27 29 31 32 33 31 29 28 27 26 25 23 21 20 19 19 18
26 26 26 26 26 26 27 27 27 27 26 25 25 26 28 29 30 30 30 30 31 32 34 34 32 32 32 32 30 30 30 32 34 32 30 30 31 31 31 32 31 29 27 25 25 26 27 29 31 33 34 32 29 29 29 28 26 24 23 22 21 20 19
27 27 27 27 28 28 28 28 28 28 28 27 26 27 28 29 30 30 30 31 32 33 33 33 33 32 32 33 33 31 30 31 33 33 30 30 30 30 30 31 30 29 29 27 26 26 27 30 31 31 35 34 31 30 30 29 29 27 26 24 23 22 21
28 28 29 29 30 30 29 29 29 29 29 28 28 28 28 28 30 30 30 31 33 34 33 32 33 33 33 34 35 33 31 30 29 30 29 30 30 29 29 30 30 30 30 29 28 27 27 30 30 30 34 34 32 32 32 32 31 30 29 27 25 23 22
29 30 31 31 32 31 30 30 30 29 29 29 29 28 28 28 29 30 30 31 32 34 34 32 32 34 33 34 35 34 32 30 27 27 28 29 29 29 30 31 30 31 30 30 29 28 28 30 29 31 34 34 34 34 34 33 32 31 31 30 27 24 23
32 32 33 33 33 33 32 31 30 30 30 30 30 29 29 28 28 29 29 30 31 32 33 33 33 34 34 34 34 33 33 31 29 27 28 30 30 29 30 30 30 31 31 31 30 29 29 29 29 31 34 36 36 35 34 34 32 32 33 31 27 24 24
33 34 35 35 35 34 34 32 32 32 32 32 31 30 29 28 28 29 29 30 30 31 31 32 33 33 34 35 35 34 32 31 30 29 29 30 30 29 29 29 30 31 32 32 31 30 30 30 30 32 34 36 37 35 34 34 33 34 34 31 27 25 24
34 35 36 36 36 36 35 34 33 33 33 32 32 31 30 29 28 29 29 30 30 30 30 32 33 33 34 34 35 34 32 30 29 30 31 31 30 30 30 31 31 31 32 32 31 31 31 31 31 32 34 36 38 37 36 35 35 36 35 29 27 26 25
34 35 36 37 37 36 35 35 34 34 33 33 32 32 30 29 29 29 29 30 30 30 31 32 33 33 33 33 34 34 32 30 29 30 31 31 30 31 32 32 32 32 32 32 31 31 32 32 33 33 34 36 39 39 37 36 36 36 33 29 28 28 27
36 36 37 37 37 37 36 35 35 34 34 33 33 32 31 30 30 30 30 31 32 32 32 33 33 33 32 32 33 34 33 31 31 31 31 31 31 32 32 32 32 31 31 31 31 32 33 33 33 33 35 37 39 39 39 37 36 35 34 32 32 31 30
37 37 37 38 38 37 37 36 35 35 35 34 34 33 32 31 31 31 31 32 32 33 33 33 33 32 31 32 33 33 32 31 31 31 31 31 32 33 32 32 32 31 31 31 31 32 32 32 32 33 35 37 38 40 40 38 36 36 36 34 33 33 32
38 38 38 38 38 38 37 37 36 36 36 35 35 34 33 33 32 32 33 33 33 33 33 32 32 32 32 32 32 33 33 32 31 30 31 32 32 33 33 32 32 31 30 30 30 31 31 31 33 35 34 33 35 39 40 39 38 38 38 36 34 33 32
38 39 39 38 38 38 37 37 37 37 37 36 36 35 35 34 34 34 35 35 34 34 34 33 32 32 32 32 32 33 33 32 32 31 30 32 32 33 33 33 32 31 28 26 29 31 31 32 35 36 34 32 35 39 41 41 41 41 40 39 36 35 34
39 39 39 38 38 37 38 38 38 38 38 38 37 37 36 36 36 36 36 36 35 34 34 34 32 32 33 33 33 34 34 33 33 32 31 31 31 32 33 32 32 32 29 27 30 31 31 33 36 36 34 33 35 41 44 43 42 43 42 40 38 37 37
38 38 38 38 38 38 38 38 39 39 39 39 38 38 38 38 38 38 38 38 37 36 36 35 35 34 34 35 35 35 35 34 33 33 33 32 31 31 31 30 30 32 32 31 32 33 32 34 37 36 35 36 38 43 46 44 44 44 42 40 38 38 39
37 38 38 38 38 38 39 39 40 40 40 40 40 40 40 40 40 40 40 40 40 39 38 37 37 36 36 36 36 35 36 35 34 34 34 33 32 30 31 30 30 31 33 34 35 34 33 34 35 34 35 39 41 44 46 46 46 45 44 42 40 38 39
36 37 37 38 38 39 39 40 41 41 41 42 42 42 42 43 43 43 43 43 43 42 41 40 40 39 39 38 36 35 36 36 35 34 34 34 33 31 30 32 31 31 33 34 34 33 31 32 35 36 37 40 42 44 45 45 44 44 45 44 41 39 39
36 36 37 37 38 39 40 41 42 42 43 43 44 44 45 45 45 45 45 46 46 45 45 44 43 41 40 39 37 36 36 36 35 35 34 34 33 32 30 31 32 31 32 33 33 34 33 33 35 37 36 36 38 41 43 43 42 42 44 44 42 41 41
37 37 38 38 39 39 40 41 42 43 43 44 44 45 45 46 46 46 46 47 47 47 47 46 45 43 41 39 38 36 35 36 36 35 34 33 33 33 32 31 31 31 32 32 32 35 36 34 35 35 33 33 35 39 42 44 44 43 42 43 43 43 44
38 39 39 40 40 41 41 42 42 43 44 44 45 45 45 46 46 46 47 47 48 48 48 47 46 44 42 41 39 38 36 35 35 35 35 34 33 32 33 32 31 31 32 32 33 35 37 36 35 35 36 37 38 40 42 44 45 45 41 41 43 44 46
39 40 40 41 42 42 43 43 44 45 45 45 46 46 47 47 47 48 48 48 49 49 49 48 47 45 43 42 40 39 37 35 35 35 35 34 33 31 31 32 31 31 32 33 34 36 38 38 35 32 33 36 38 40 42 43 44 45 43 43 44 44 45
40 41 42 42 42 43 44 44 45 46 47 47 48 48 49 49 49 50 50 50 50 50 50 49 49 48 46 43 41 40 38 36 34 35 36 35 33 32 31 31 30 30 30 31 33 35 37 39 38 33 31 34 36 37 39 40 42 43 43 42 41 42 44
41 42 43 43 43 44 45 46 47 47 48 49 49 50 50 50 51 51 51 51 52 51 51 50 50 49 48 46 43 41 39 37 35 34 35 36 34 32 31 30 30 29 29 29 30 34 36 38 39 36 32 31 34 36 36 38 40 40 39 39 39 40 42
42 43 43 44 45 46 46 47 48 49 49 50 51 51 51 51 51 51 51 52 52 52 52 51 50 50 49 47 45 42 40 39 37 35 35 36 36 33 31 30 29 29 29 29 30 32 35 37 38 38 35 31 31 35 36 38 40 39 39 39 41 42 42
42 43 44 45 45 46 47 48 49 50 50 51 52 52 52 52 52 52 51 52 52 52 53 52 51 50 48 47 46 43 42 40 39 36 35 36 36 35 33 31 29 29 30 30 30 29 31 34 37 39 37 33 31 33 36 39 42 42 41 42 43 44 44
44 44 45 46 46 47 48 49 50 51 51 52 52 53 53 53 53 52 52 52 52 52 52 52 52 51 50 48 46 44 42 41 41 39 36 36 36 36 34 32 30 29 30 30 30 30 30 31 34 37 38 33 30 30 32 36 41 42 43 43 45 46 46
45 46 46 47 48 49 50 51 52 52 53 54 54 54 54 54 54 54 53 52 52 52 52 52 52 52 51 49 47 45 43 42 42 41 39 37 37 36 36 35 32 31 31 31 30 30 30 30 32 35 36 34 30 28 28 30 34 37 39 40 42 44 44
45 45 46 47 48 49 50 51 52 52 53 54 55 55 56 56 56 56 55 54 53 53 52 52 51 51 51 50 48 46 44 42 42 42 41 39 38 38 37 36 35 33 33 32 30 29 29 29 30 32 34 35 33 31 29 29 29 32 35 37 40 41 41
43 43 44 45 47 48 49 50 51 52 53 54 55 55 56 56 56 56 56 56 55 54 53 53 52 51 51 50 49 47 45 43 42 43 43 41 41 40 38 37 37 35 34 34 32 30 28 28 30 30 30 31 32 33 32 31 31 32 34 37 39 39 40
42 43 44 46 47 48 50 51 52 53 54 55 55 56 56 57 57 57 56 56 55 55 54 53 53 52 51 50 49 48 47 44 43 42 43 43 42 42 40 38 37 36 36 36 34 33 30 28 28 29 27 26 27 30 32 32 33 34 35 37 38 38 38
40 41 42 43 44 45 46 47 48 49 50 51 52 54 55 56 56 56 57 57 56 55 55 54 53 53 51 50 49 48 47 46 44 43 43 43 43 43 42 40 38 37 37 37 36 35 33 29 27 28 28 26 24 25 28 32 34 34 35 37 38 38 38
36 37 37 38 38 39 39 40 41 42 43 44 46 47 48 50 51 52 53 54 55 55 55 55 54 53 52 50 48 47 46 45 44 43 43 43 43 43 44 43 41 39 37 37 37 36 35 33 29 28 28 28 27 26 26 29 32 34 34 36 38 39 39
32 32 33 33 34 34 35 36 36 37 38 38 39 40 41 42 44 45 46 48 49 51 52 53 54 53 53 51 49 47 45 44 43 42 43 43 43 43 43 44 43 42 40 38 37 37 36 35 32 30 29 29 30 29 27 26 29 33 33 33 35 38 39

ECMWFFLT1_500_spd_078.txt.gz
Wind_Speed
23 24 25 26 26 25 26 26 26 26 25 23 22 22 22 21 20 20 20 21 22 24 23 22 21 22 23 23 23 24 25 27 27 27 28 29 28 27 28 27 25 25 24 25 25 25 25 24 26 29 29 28 27 27 26 25 23 23 23 23 23 23 22
23 24 25 26 27 27 27 27 27 28 27 25 24 24 24 22 21 20 21 22 23 24 23 22 22 22 22 22 23 24 25 26 28 29 29 30 30 29 30 29 27 26 25 25 26 26 26 25 27 29 31 31 29 27 28 27 26 26 26 25 25 24 23
23 24 25 26 27 28 28 28 28 28 28 27 27 27 26 25 23 22 22 22 23 23 23 23 22 22 22 22 23 25 25 25 27 29 30 32 33 32 32 31 30 29 28 27 27 28 28 26 27 29 32 32 30 29 30 29 28 28 28 28 27 25 24
23 24 25 26 27 28 28 29 29 29 29 29 29 29 29 28 26 24 23 22 23 23 24 25 24 23 24 24 25 25 26 26 26 28 30 32 34 34 33 33 32 32 31 29 27 29 29 27 27 29 33 34 31 31 32 30 29 29 29 29 28 26 25
24 24 25 26 27 28 28 29 29 29 30 31 31 31 30 30 29 27 26 24 24 25 25 26 25 25 25 25 25 26 27 27 27 28 29 31 34 34 34 34 34 33 33 31 30 30 29 29 28 29 31 34 33 31 33 33 31 30 30 31 30 28 27
24 25 25 25 26 28 28 29 30 30 31 32 32 32 31 31 30 29 28 27 27 27 27 27 26 25 24 24 25 26 27 28 29 30 30 31 33 34 35 34 34 34 33 32 32 32 31 30 29 27 28 33 34 32 34 35 34 32 32 32 32 30 28
25 25 25 26 26 27 29 30 31 32 33 33 33 33 32 32 31 31 30 30 29 28 28 27 26 25 25 24 24 25 26 28 29 30 31 32 32 33 35 35 36 36 34 34 35 34 33 32 30 28 29 33 35 33 34 36 36 35 33 32 34 32 30
26 27 27 27 27 28 29 31 32 33 34 35 34 34 34 33 33 32 32 31 31 30 29 27 25 25 25 25 25 26 27 28 29 30 32 33 32 32 34 34 36 37 35 35 36 35 33 32 31 30 31 33 34 34 34 36 37 37 34 35 36 34 32
28 28 29 29 29 29 30 32 33 34 35 36 36 35 35 34 34 33 32 32 32 31 30 29 26 25 25 25 25 27 28 28 29 30 32 33 33 32 33 34 35 35 36 37 37 36 35 34 33 32 33 33 33 34 35 36 36 36 36 37 37 34 33
29 29 30 31 31 31 32 33 34 35 36 37 37 37 36 36 35 34 33 33 32 30 30 29 28 26 25 25 27 28 30 30 30 30 31 31 33 33 33 34 34 34 36 38 37 37 36 35 34 34 34 34 34 34 34 34 35 35 38 39 38 36 35
30 31 31 31 32 32 33 34 35 37 38 38 38 38 37 37 36 35 34 33 32 31 30 29 28 27 26 26 28 29 30 31 30 30 31 30 32 33 33 33 34 33 35 37 38 37 37 36 35 35 34 34 35 34 32 32 33 35 38 40 39 38 37
31 32 32 32 32 33 34 35 36 37 38 39 38 38 38 37 37 36 35 34 33 33 32 30 29 28 27 27 29 30 30 30 30 30 31 30 31 32 32 33 33 33 34 36 37 37 38 37 36 36 36 35 35 34 32 32 34 36 39 41 40 39 39
32 33 34 34 34 34 35 36 37 38 39 39 39 39 38 38 37 37 36 35 34 34 33 31 30 29 28 29 29 30 29 29 30 30 30 30 31 31 31 31 32 32 33 35 36 38 38 37 36 37 37 36 35 34 34 35 37 39 40 41 40 41 41
34 35 35 35 36 36 37 38 38 39 40 40 40 39 39 38 38 37 37 36 36 35 34 33 32 31 30 30 30 30 30 29 30 30 30 30 31 31 31 31 31 31 32 33 35 37 38 37 36 37 37 37 36 35 35 37 38 39 39 40 41 42 42
37 37 37 37 37 38 38 38 39 40 41 41 40 40 39 39 38 38 37 37 37 36 36 34 33 32 31 30 30 31 31 30 31 31 31 31 31 32 32 32 31 31 31 32 33 35 37 36 37 37 37 37 37 36 36 37 37 38 39 40 41 43 43
39 38 38 39 39 40 40 39 40 40 41 41 40 40 39 39 39 39 38 38 38 38 37 37 35 34 32 31 31 31 31 32 32 33 33 33 33 33 33 33 32 32 31 31 32 33 35 36 37 38 37 37 38 38 38 38 39 39 40 42 43 44 44
41 40 40 41 41 41 41 40 40 40 40 41 41 40 40 40 40 40 40 40 39 39 39 38 37 36 34 33 32 32 32 32 33 34 35 35 35 35 35 34 34 33 32 32 32 32 34 36 37 38 37 37 37 38 39 40 40 41 43 46 46 45 45
42 42 42 43 43 42 42 41 40 40 40 40 40 40 40 40 40 41 41 41 41 41 40 40 39 39 37 36 35 34 34 33 34 35 36 37 36 36 35 35 35 34 33 33 32 32 35 36 38 40 38 37 37 39 40 41 42 43 43 45 46 46 46
44 43 43 43 43 42 42 41 41 41 41 41 41 41 41 41 41 42 42 43 43 43 43 43 42 41 41 40 39 38 37 36 35 36 37 38 38 37 35 35 35 35 33 33 32 32 34 36 40 43 42 39 36 38 41 40 39 38 35 36 41 45 48
45 44 44 43 42 41 40 40 40 40 40 41 41 42 42 42 42 43 43 44 44 45 45 45 44 44 43 42 42 41 40 38 37 37 38 39 38 37 36 35 35 36 34 33 32 32 34 37 40 42 45 45 40 36 40 40 36 35 33 33 37 42 47
45 45 43 42 41 40 39 39 39 40 40 41 42 43 43 44 44 44 44 45 45 46 46 46 46 45 44 43 43 42 41 40 39 38 38 39 38 38 37 36 35 36 36 34 33 32 32 37 40 40 42 46 42 36 37 37 35 37 37 36 37 41 46
44 43 42 41 40 39 39 39 40 41 41 42 42 43 44 45 46 46 46 46 47 47 48 48 48 47 46 45 44 43 43 42 41 39 38 38 39 39 38 37 35 36 36 36 34 33 32 34 38 39 39 42 40 34 31 32 36 40 38 39 43 44 47
43 42 41 41 40 40 40 41 41 42 42 42 43 44 45 46 46 47 48 48 49 49 49 49 50 49 49 48 47 46 45 44 44 42 40 39 39 39 39 38 36 36 37 37 35 34 33 33 35 37 38 40 40 38 34 34 39 44 42 44 48 48 50
42 41 41 41 41 41 41 41 42 43 43 43 44 45 45 46 47 47 48 49 50 50 50 50 51 51 51 50 50 49 48 47 46 45 43 41 40 39 39 38 37 36 36 37 37 35 33 33 34 36 37 39 42 45 44 39 38 42 45 47 51 52 53
41 41 41 41 41 41 41 42 42 43 43 44 45 46 46 47 48 49 49 50 51 52 53 53 53 52 52 52 52 51 50 50 48 47 45 44 42 40 39 39 38 37 37 37 37 36 34 33 33 34 35 38 42 47 49 44 37 37 42 46 49 50 51
41 41 41 41 42 42 42 43 43 44 45 46 47 48 49 50 50 51 52 53 53 54 55 55 56 55 55 54 54 53 52 52 51 50 48 46 44 42 40 39 39 38 38 38 38 37 35 34 33 33 34 36 40 44 48 46 40 36 36 39 41 42 45
41 41 41 42 42 43 44 45 45 46 47 48 49 50 52 53 54 54 55 56 56 57 57 58 58 58 58 57 56 55 55 54 53 52 51 49 46 45 42 40 40 40 39 39 39 38 36 35 34 33 33 34 36 40 43 44 43 41 38 37 38 38 41
40 40 41 42 44 45 46 47 48 49 50 51 52 53 54 55 56 58 58 59 60 60 60 60 61 61 61 61 60 59 57 56 54 53 52 51 49 47 44 41 40 41 40 39 39 39 38 36 35 33 33 34 36 37 39 40 42 43 39 36 37 39 40
40 41 43 44 45 46 48 49 50 50 51 52 53 54 55 56 57 58 59 60 61 62 62 62 62 62 62 63 63 62 60 58 57 55 53 52 51 49 47 44 41 41 42 41 40 40 39 38 36 34 33 34 36 37 38 40 41 42 38 34 35 39 41
41 43 44 45 46 46 47 48 48 49 50 51 52 53 54 56 57 58 59 60 61 62 63 63 63 63 62 62 63 63 63 61 59 57 55 53 52 50 48 46 43 41 42 42 41 40 40 39 38 36 34 34 35 36 37 40 42 43 41 36 34 38 42
42 43 44 44 44 44 45 46 46 47 49 50 51 52 53 54 55 56 58 59 60 62 63 63 64 64 63 63 62 62 62 62 60 59 57 55 53 51 49 48 45 42 43 44 43 41 41 40 39 38 36 35 35 35 36 37 40 43 43 39 35 36 40
40 40 40 41 41 42 43 43 44 45 46 46 47 48 49 50 51 52 53 54 56 58 59 61 62 63 64 64 63 62 62 61 60 59 57 56 54 52 50 48 47 44 43 44 44 43 42 41 40 39 38 36 34 36 35 34 35 39 42 40 36 35 37
37 37 38 38 38 39 39 40 40 41 41 42 43 44 45 46 47 48 49 50 51 52 54 55 57 58 60 61 62 62 62 61 60 59 57 56 54 53 51 49 48 46 44 44 45 44 43 42 41 40 39 37 35 35 34 33 32 34 38 40 35 32 33
34 34 35 35 35 35 35 36 36 37 38 39 40 41 42 44 45 46 47 48 49 50 50 51 52 53 54 56 57 59 60 60 60 59 57 56 54 53 52 50 49 47 46 45 46 46 44 44 42 41 40 39 37 35 34 33 31 31 35 39 36 31 30
32 32 32 32 32 33 33 34 34 35 36 37 38 39 41 42 44 46 47 48 49 50 50 49 49 49 49 50 51 53 55 56 57 57 57 56 54 52 51 50 49 48 48 47 47 47 46 45 44 42 41 40 38 36 34 33 32 31 30 32 33 31 30
30 30 31 31 31 31 32 33 34 35 36 37 38 39 40 41 43 45 47 49 51 52 52 50 48 46 45 45 46 47 49 50 52 53 54 54 54 53 51 49 48 48 49 48 48 48 47 46 45 43 42 41 39 38 35 33 33 31 28 28 30 30 29
29 29 29 29 30 31 32 34 35 35 36 36 37 38 38 40 42 44 46 49 52 53 53 51 48 45 43 42 41 41 43 44 46 48 50 51 52 52 51 49 47 47 48 49 49 49 48 47 46 45 43 42 40 39 37 35 33 32 30 28 29 29 29